Temp
-10 -10 -10 -10 -10 -10 -10 -11 -11 -12 -12 -12 -12 -12 -11 -11 -11 -11 -11 -10 -10 -10 -10 -10 -10 -10 -10 -10 -10 -9 -9 -9 -9 -9 -9 -9 -9 -9 -9 -9 -9 -8 -8
-11 -11 -11 -10 -10 -10 -11 -11 -12 -12 -13 -13 -12 -12 -11 -11 -11 -11 -10 -10 -10 -10 -10 -10 -10 -10 -10 -10 -10 -10 -9 -9 -10 -9 -9 -9 -9 -9 -9 -9 -9 -9 -9
-11 -11 -10 -10 -10 -11 -11 -12 -12 -12 -13 -13 -12 -12 -12 -12 -11 -11 -11 -10 -11 -10 -10 -10 -10 -10 -10 -10 -10 -10 -10 -9 -9 -10 -10 -9 -9 -9 -9 -9 -9 -9 -9
-11 -11 -11 -11 -11 -11 -11 -12 -13 -12 -13 -13 -12 -12 -12 -12 -10 -11 -11 -11 -11 -11 -10 -10 -10 -10 -10 -10 -10 -10 -10 -10 -9 -10 -10 -10 -10 -10 -10 -9 -9 -9 -9
-11 -11 -11 -11 -11 -11 -11 -12 -12 -12 -12 -12 -12 -12 -12 -11 -11 -11 -11 -11 -10 -11 -10 -10 -9 -10 -10 -10 -10 -10 -10 -10 -10 -10 -10 -10 -10 -10 -10 -10 -10 -10 -10
-11 -11 -11 -11 -11 -11 -11 -12 -11 -11 -12 -12 -12 -11 -11 -11 -11 -11 -11 -10 -11 -10 -10 -10 -10 -10 -10 -10 -10 -10 -10 -9 -10 -10 -10 -10 -10 -10 -10 -10 -10 -10 -10
-11 -11 -11 -11 -11 -11 -11 -11 -11 -11 -11 -11 -11 -12 -11 -11 -11 -11 -10 -10 -10 -10 -10 -10 -10 -10 -10 -11 -10 -10 -10 -10 -10 -10 -10 -10 -10 -10 -11 -10 -10 -10 -10
-11 -11 -11 -11 -11 -11 -11 -11 -11 -11 -11 -11 -11 -12 -11 -10 -10 -10 -10 -10 -10 -10 -10 -10 -10 -10 -10 -10 -10 -10 -10 -10 -10 -10 -11 -11 -10 -10 -11 -10 -10 -10 -10
-11 -11 -11 -11 -11 -11 -11 -12 -11 -11 -11 -11 -11 -12 -10 -10 -10 -10 -10 -10 -10 -10 -10 -10 -10 -10 -10 -10 -11 -10 -10 -10 -10 -11 -11 -11 -11 -11 -11 -11 -11 -11 -11
-11 -11 -11 -11 -11 -11 -11 -12 -11 -11 -11 -12 -12 -12 -11 -11 -11 -11 -10 -10 -10 -10 -10 -10 -10 -10 -10 -12 -11 -10 -10 -10 -10 -11 -11 -11 -11 -11 -11 -11 -11 -11 -11
-11 -11 -11 -11 -12 -12 -11 -11 -11 -11 -11 -11 -12 -12 -11 -11 -11 -11 -11 -10 -11 -10 -11 -10 -10 -11 -11 -11 -11 -11 -11 -11 -10 -11 -11 -11 -11 -11 -11 -11 -10 -11 -10
-11 -11 -11 -11 -11 -12 -12 -12 -11 -11 -12 -11 -11 -11 -11 -11 -11 -11 -11 -11 -11 -11 -11 -11 -11 -11 -11 -12 -11 -11 -11 -11 -11 -11 -11 -11 -11 -11 -11 -11 -11 -11 -11
-11 -11 -11 -11 -11 -11 -11 -11 -11 -11 -12 -11 -12 -11 -11 -11 -11 -11 -11 -11 -11 -11 -11 -11 -11 -11 -12 -12 -12 -12 -12 -11 -11 -11 -11 -11 -11 -11 -11 -11 -11 -11 -11
-11 -11 -11 -11 -11 -11 -11 -11 -12 -11 -11 -12 -11 -12 -11 -11 -11 -11 -11 -11 -11 -11 -11 -11 -11 -11 -12 -13 -12 -12 -12 -12 -12 -12 -11 -11 -11 -11 -11 -11 -11 -11 -11
-11 -11 -11 -11 -11 -11 -11 -11 -11 -11 -12 -12 -12 -12 -11 -11 -11 -11 -11 -11 -10 -11 -11 -11 -11 -11 -12 -14 -13 -14 -12 -12 -12 -12 -11 -11 -11 -11 -11 -11 -11 -11 -11
-11 -11 -11 -11 -11 -11 -11 -11 -11 -11 -11 -11 -11 -11 -11 -11 -10 -10 -11 -11 -11 -11 -11 -11 -11 -11 -12 -13 -13 -13 -13 -12 -12 -12 -11 -11 -11 -11 -11 -11 -11 -11 -11
-11 -11 -11 -11 -12 -12 -12 -12 -12 -11 -11 -12 -12 -12 -12 -12 -12 -11 -11 -11 -11 -11 -12 -12 -11 -11 -12 -13 -13 -13 -13 -12 -12 -12 -12 -12 -12 -12 -11 -11 -11 -11 -11
-11 -12 -11 -11 -11 -12 -12 -12 -12 -12 -12 -12 -12 -12 -12 -12 -12 -12 -12 -12 -12 -12 -12 -12 -12 -11 -12 -13 -13 -14 -13 -13 -12 -12 -12 -12 -12 -12 -12 -11 -11 -11 -11
-11 -11 -11 -12 -12 -11 -12 -12 -12 -13 -12 -12 -12 -12 -12 -12 -12 -13 -12 -12 -12 -12 -13 -13 -13 -13 -13 -13 -13 -13 -13 -13 -13 -12 -12 -12 -12 -12 -12 -12 -12 -12 -11
-11 -12 -12 -12 -12 -12 -12 -12 -12 -12 -13 -13 -13 -13 -12 -12 -12 -12 -13 -13 -13 -13 -13 -13 -13 -13 -13 -15 -15 -15 -14 -13 -13 -12 -12 -12 -12 -12 -12 -12 -12 -12 -12
-12 -12 -12 -12 -12 -12 -12 -12 -12 -13 -13 -13 -13 -13 -13 -12 -12 -12 -12 -12 -13 -13 -13 -13 -13 -14 -14 -14 -14 -14 -13 -13 -13 -13 -13 -12 -12 -12 -12 -12 -12 -12 -12
-12 -12 -12 -13 -13 -13 -13 -13 -12 -13 -13 -13 -13 -13 -13 -13 -13 -12 -13 -12 -13 -13 -13 -13 -13 -13 -13 -13 -13 -13 -13 -14 -13 -13 -13 -13 -13 -13 -12 -12 -12 -12 -12
-12 -13 -13 -13 -13 -13 -13 -13 -13 -13 -13 -13 -13 -13 -13 -13 -13 -14 -13 -13 -13 -13 -13 -13 -13 -13 -13 -13 -13 -13 -13 -13 -13 -13 -12 -13 -13 -13 -13 -13 -12 -12 -12
-12 -12 -12 -13 -13 -13 -13 -13 -13 -13 -13 -13 -13 -14 -14 -14 -13 -13 -13 -14 -13 -13 -13 -13 -13 -13 -13 -13 -13 -14 -14 -14 -13 -13 -13 -13 -13 -13 -13 -13 -12 -12 -12
-12 -12 -13 -12 -13 -13 -13 -13 -14 -14 -14 -14 -14 -13 -13 -13 -14 -14 -13 -14 -14 -14 -14 -13 -13 -13 -13 -13 -13 -13 -13 -14 -14 -14 -14 -14 -14 -13 -13 -13 -12 -12 -12
-13 -13 -13 -13 -13 -13 -13 -13 -14 -14 -14 -14 -15 -14 -14 -14 -14 -14 -14 -14 -14 -14 -14 -14 -14 -14 -14 -14 -14 -14 -14 -14 -14 -14 -14 -14 -14 -14 -14 -14 -14 -13 -13
Height
5783 5783 5780 5780 5779 5778 5776 5774 5772 5772 5771 5771 5772 5775 5778 5781 5785 5787 5790 5793 5795 5798 5801 5802 5805 5808 5808 5810 5813 5815 5817 5820 5822 5824 5825 5827 5830 5832 5832 5834 5835 5837 5838
5780 5779 5777 5776 5775 5774 5771 5769 5767 5767 5766 5766 5768 5771 5774 5776 5779 5782 5784 5787 5790 5793 5797 5801 5803 5805 5806 5808 5810 5812 5815 5818 5821 5823 5824 5826 5829 5831 5832 5833 5835 5837 5839
5777 5774 5774 5772 5771 5769 5767 5765 5762 5761 5761 5761 5763 5767 5769 5772 5775 5773 5779 5782 5785 5788 5794 5798 5799 5800 5803 5807 5810 5812 5813 5817 5820 5821 5823 5825 5828 5830 5831 5832 5835 5836 5838
5773 5770 5769 5768 5767 5765 5763 5760 5757 5756 5755 5756 5758 5762 5764 5769 5771 5772 5776 5779 5782 5786 5792 5794 5791 5796 5800 5805 5808 5811 5813 5816 5819 5820 5822 5825 5826 5828 5830 5831 5834 5835 5837
5769 5767 5766 5764 5762 5760 5758 5755 5753 5752 5752 5752 5754 5757 5761 5765 5768 5769 5773 5775 5781 5784 5788 5792 5790 5795 5798 5803 5807 5810 5812 5814 5817 5819 5821 5823 5825 5827 5829 5831 5833 5834 5836
5765 5763 5761 5759 5758 5756 5754 5752 5749 5749 5749 5749 5750 5754 5758 5760 5762 5766 5769 5773 5778 5781 5785 5790 5792 5793 5797 5801 5805 5807 5810 5813 5815 5817 5819 5821 5823 5825 5827 5829 5830 5832 5835
5762 5759 5757 5756 5754 5753 5751 5750 5747 5747 5746 5746 5749 5752 5754 5755 5758 5762 5766 5770 5775 5778 5784 5787 5790 5792 5796 5800 5803 5805 5808 5811 5813 5816 5818 5820 5823 5825 5827 5828 5829 5831 5834
5758 5756 5753 5752 5750 5750 5749 5747 5746 5744 5744 5744 5747 5748 5750 5749 5754 5758 5763 5767 5771 5776 5780 5783 5787 5791 5795 5799 5801 5804 5807 5809 5811 5814 5816 5819 5821 5824 5826 5827 5829 5831 5833
5753 5752 5750 5747 5747 5746 5746 5746 5744 5743 5741 5741 5742 5743 5742 5747 5751 5756 5757 5763 5767 5771 5774 5779 5784 5788 5793 5797 5799 5802 5804 5807 5810 5813 5815 5818 5820 5822 5824 5826 5828 5830 5831
5749 5748 5747 5746 5744 5742 5742 5742 5743 5743 5740 5739 5741 5739 5738 5747 5746 5754 5757 5760 5762 5767 5769 5773 5780 5785 5790 5794 5798 5799 5802 5805 5808 5810 5813 5816 5818 5820 5821 5823 5825 5828 5828
5746 5745 5744 5743 5742 5739 5738 5738 5737 5739 5739 5738 5739 5739 5741 5739 5745 5751 5755 5757 5761 5764 5768 5771 5777 5781 5785 5791 5794 5795 5798 5802 5805 5808 5810 5812 5814 5816 5818 5820 5822 5824 5825
5742 5741 5740 5740 5739 5738 5736 5736 5734 5734 5736 5735 5736 5736 5737 5739 5743 5748 5752 5754 5758 5762 5765 5767 5772 5776 5780 5786 5790 5793 5795 5798 5802 5804 5807 5808 5810 5813 5815 5818 5819 5821 5822
5738 5737 5737 5737 5736 5736 5734 5734 5734 5732 5732 5732 5733 5734 5736 5738 5742 5745 5749 5752 5754 5758 5761 5763 5767 5771 5775 5781 5785 5789 5791 5794 5797 5801 5802 5804 5806 5809 5812 5814 5816 5818 5819
5733 5733 5733 5732 5732 5732 5732 5731 5732 5731 5730 5730 5730 5731 5734 5735 5737 5740 5744 5749 5751 5753 5757 5760 5762 5766 5770 5776 5781 5784 5787 5790 5794 5796 5797 5799 5802 5805 5807 5809 5811 5813 5814
5728 5728 5729 5728 5728 5728 5728 5727 5728 5728 5728 5728 5729 5729 5731 5733 5734 5737 5742 5745 5745 5748 5752 5755 5758 5761 5765 5768 5772 5778 5783 5786 5789 5791 5793 5795 5797 5800 5802 5805 5807 5808 5811
5722 5723 5724 5725 5724 5724 5725 5724 5724 5725 5724 5724 5724 5725 5727 5728 5730 5733 5735 5736 5741 5745 5748 5751 5755 5758 5762 5766 5769 5773 5778 5782 5784 5786 5788 5791 5793 5795 5798 5801 5803 5805 5807
5715 5716 5718 5720 5719 5719 5720 5721 5721 5721 5723 5722 5720 5721 5721 5724 5726 5730 5732 5734 5736 5740 5743 5746 5750 5753 5757 5762 5765 5768 5773 5776 5779 5781 5783 5786 5788 5790 5793 5795 5797 5799 5801
5707 5707 5710 5713 5714 5714 5714 5716 5716 5716 5716 5717 5719 5718 5720 5721 5723 5725 5727 5728 5730 5733 5736 5740 5744 5748 5753 5756 5760 5762 5766 5769 5772 5775 5778 5780 5782 5784 5786 5788 5790 5792 5795
5698 5698 5700 5704 5706 5708 5708 5709 5711 5711 5712 5713 5714 5715 5717 5719 5720 5721 5725 5727 5728 5730 5733 5736 5738 5741 5746 5751 5754 5757 5760 5763 5765 5768 5771 5773 5776 5777 5779 5781 5783 5785 5787
5687 5689 5691 5695 5697 5701 5702 5703 5704 5707 5709 5710 5710 5710 5712 5713 5717 5718 5720 5724 5726 5727 5730 5733 5736 5739 5742 5745 5749 5751 5753 5757 5760 5762 5765 5767 5769 5771 5773 5775 5776 5779 5780
5678 5678 5680 5684 5686 5689 5693 5696 5698 5699 5701 5702 5702 5703 5707 5709 5709 5711 5714 5718 5719 5721 5723 5727 5730 5733 5735 5738 5742 5746 5748 5750 5752 5754 5757 5759 5761 5763 5765 5767 5768 5770 5771
5670 5669 5669 5673 5677 5678 5681 5684 5688 5690 5692 5694 5696 5698 5700 5701 5704 5705 5706 5709 5714 5716 5718 5721 5723 5726 5729 5730 5732 5734 5739 5742 5745 5746 5748 5750 5752 5753 5755 5756 5758 5759 5761
5655 5658 5660 5662 5664 5668 5671 5674 5677 5679 5682 5685 5688 5690 5691 5692 5693 5695 5698 5701 5703 5707 5710 5714 5717 5718 5720 5720 5724 5725 5727 5731 5733 5735 5738 5740 5742 5744 5745 5746 5747 5747 5749
5640 5645 5648 5650 5651 5655 5659 5662 5665 5668 5672 5675 5677 5678 5681 5684 5685 5687 5689 5692 5694 5697 5700 5703 5706 5708 5710 5713 5714 5716 5717 5720 5722 5726 5727 5728 5731 5731 5733 5734 5735 5736 5737
5626 5629 5632 5637 5639 5641 5645 5649 5652 5656 5660 5663 5665 5669 5673 5676 5678 5679 5681 5682 5684 5687 5690 5693 5695 5697 5699 5702 5703 5705 5708 5709 5712 5714 5716 5717 5718 5719 5721 5722 5724 5724 5725
5612 5615 5618 5622 5626 5629 5632 5634 5638 5642 5646 5649 5652 5656 5659 5663 5666 5669 5671 5673 5675 5677 5679 5681 5683 5686 5687 5689 5692 5694 5697 5699 5701 5701 5702 5704 5705 5706 5707 5709 5711 5710 5711
Wind_Speed
20 19 20 21 22 24 24 25 26 26 26 25 24 29 28 29 30 32 33 29 30 32 30 31 27 24 21 20 19 17 18 18 19 17 16 14 14 13 12 11 11 11 12
21 20 21 22 23 24 21 24 27 27 24 23 26 24 27 31 26 27 26 27 26 34 35 30 28 25 23 19 18 17 18 18 19 17 16 15 14 13 13 12 12 11 11
21 20 21 21 24 23 21 23 24 25 24 22 25 28 31 28 32 27 24 27 29 36 36 29 28 25 26 23 21 21 21 20 19 18 18 17 15 14 13 12 12 12 11
21 21 21 22 24 22 20 22 21 22 21 24 25 32 33 31 28 32 20 24 32 34 32 27 30 25 29 24 21 20 19 18 18 17 17 17 16 15 15 13 12 11 11
21 21 20 21 23 21 20 20 19 20 18 21 23 29 33 32 30 27 25 26 34 30 32 32 25 22 27 25 21 19 20 20 19 18 18 17 16 14 15 15 14 13 12
21 21 21 22 22 21 20 19 18 17 16 19 24 27 28 30 29 27 26 21 30 34 29 26 28 24 24 24 22 21 20 19 19 20 20 19 19 16 16 16 15 14 13
19 20 20 22 21 19 19 19 14 12 14 18 20 25 27 30 31 28 25 28 29 31 28 25 29 28 26 25 24 23 21 20 19 19 19 18 18 17 15 16 15 15 14
17 19 19 20 20 16 18 16 11 6 12 13 23 25 23 34 27 29 28 25 22 33 31 28 31 30 28 26 25 23 21 20 20 20 20 19 19 18 17 16 14 13 13
15 16 18 20 18 15 15 12 12 7 17 18 18 22 33 25 27 19 20 17 18 26 21 33 35 32 28 28 26 24 22 20 20 20 19 19 18 18 18 17 15 14 14
13 14 17 19 17 13 13 12 11 10 12 13 13 18 24 33 33 19 22 20 21 10 9 35 38 33 31 30 29 28 25 22 21 20 18 18 19 19 19 19 18 17 16
13 14 16 15 16 14 13 13 13 12 14 15 22 14 18 39 21 21 15 26 28 19 11 27 37 36 34 33 33 31 28 25 23 22 21 21 20 20 21 21 19 19 19
14 15 17 15 14 14 14 10 9 9 13 17 13 11 17 16 26 19 18 17 21 19 14 14 32 30 38 37 33 33 29 27 25 24 23 23 24 24 23 23 22 22 22
15 16 17 15 13 14 15 12 8 6 13 18 11 13 16 15 29 29 21 21 21 19 17 13 22 29 40 41 36 33 30 28 26 25 25 26 26 25 25 25 25 25 24
16 18 16 17 16 13 14 14 10 8 6 8 14 10 16 19 21 28 25 25 22 19 20 19 27 31 38 36 35 32 31 29 28 28 28 29 28 27 26 27 27 26 24
20 18 18 17 18 17 15 15 13 9 9 5 6 5 7 11 15 26 28 25 25 23 22 22 26 31 45 45 43 33 30 29 29 29 30 29 28 28 28 27 26 24 24
23 21 19 20 20 20 18 17 16 12 12 11 7 5 5 3 8 18 22 24 23 23 22 23 31 34 40 42 37 36 33 32 31 31 31 30 31 30 28 28 27 26 26
25 24 22 21 23 22 21 20 19 17 15 13 12 10 8 7 8 8 7 12 17 24 27 30 33 39 39 38 39 36 33 32 31 32 32 32 32 30 30 29 28 28 28
27 28 26 24 24 24 25 23 22 22 18 15 16 13 15 14 12 12 10 8 10 18 25 31 35 41 38 41 42 36 33 31 32 34 34 33 33 32 31 31 31 31 31
33 33 32 29 28 28 28 27 25 23 23 21 19 18 17 18 17 17 17 15 14 16 17 30 36 38 40 40 41 39 36 33 32 33 35 36 35 34 33 33 32 33 33
38 37 36 34 32 30 31 31 31 28 26 26 24 23 22 20 21 21 22 25 25 23 24 22 22 24 30 28 25 28 32 32 35 37 38 38 37 36 36 35 35 35 35
40 41 41 37 37 35 33 33 34 33 32 31 30 29 29 26 24 24 25 28 29 31 32 31 32 32 33 33 38 35 31 33 36 36 37 38 39 40 39 39 38 39 39
42 44 45 43 39 39 37 36 36 37 38 37 36 34 33 30 31 31 30 29 30 32 33 35 36 37 38 38 39 39 38 39 39 39 43 45 44 44 43 43 43 43 42
45 46 47 46 45 43 42 40 38 39 39 40 38 37 38 38 37 37 36 35 34 34 35 37 39 40 41 40 41 41 41 43 44 44 47 46 47 48 47 47 47 46 47
46 45 46 47 49 46 44 43 42 42 41 42 45 45 45 45 44 43 43 41 41 40 39 39 39 40 41 43 43 43 43 44 45 46 46 47 50 51 52 53 52 52 52
44 45 45 46 48 49 48 46 45 44 44 45 48 48 48 48 47 47 48 46 46 46 45 44 44 44 43 44 43 45 46 46 46 47 48 49 51 52 54 55 57 56 56
46 45 42 42 45 48 49 49 47 46 47 48 48 49 50 50 50 51 51 50 51 51 50 49 50 48 49 48 48 48 48 48 48 49 50 51 52 53 54 56 57 58 59
Wind_Direction
291 292 289 289 292 291 293 284 282 281 282 260 238 234 233 238 239 238 240 242 238 231 229 213 224 219 212 191 188 187 188 189 189 189 186 182 186 183 173 173 170 167 164
300 288 290 290 293 298 293 286 283 284 276 262 235 232 232 231 235 237 239 235 233 226 223 219 214 204 194 192 192 179 186 190 192 190 188 184 183 183 179 177 172 172 169
309 290 289 292 297 301 290 293 287 282 266 245 234 211 229 228 230 221 227 241 242 224 219 210 218 200 192 188 189 188 185 189 193 190 187 188 190 188 190 186 185 178 182
312 297 290 292 297 302 293 299 284 283 264 234 227 226 228 232 234 244 225 235 221 213 201 204 189 199 191 181 187 189 188 189 193 191 189 189 190 192 190 186 190 189 191
307 300 290 290 299 302 301 301 293 285 255 241 226 225 232 233 236 240 233 228 213 207 204 212 202 185 190 179 187 189 191 193 192 192 190 191 193 193 195 197 194 195 197
300 303 293 293 297 301 306 299 297 287 253 238 228 225 230 235 235 232 231 217 218 225 210 210 217 200 188 182 187 190 192 196 197 193 191 192 196 196 189 192 193 194 196
300 299 293 291 294 298 302 304 299 276 251 236 231 232 235 233 231 232 219 221 216 206 202 212 207 199 195 194 196 199 197 196 197 197 196 193 197 200 196 196 197 198 202
296 297 295 293 293 295 304 308 300 257 243 258 237 231 227 229 220 218 210 201 208 215 208 213 208 201 199 199 202 205 203 199 195 198 198 197 197 201 205 207 205 202 207
293 297 299 295 299 295 297 300 289 245 238 261 261 235 237 222 199 195 203 204 223 206 223 218 205 202 203 203 207 209 210 207 201 199 200 204 203 206 209 213 216 217 215
288 291 296 299 301 294 287 292 288 269 237 241 254 254 207 202 198 196 215 204 201 207 284 209 204 204 204 204 209 215 216 213 210 206 204 209 212 215 216 217 218 218 219
283 283 286 297 304 295 289 292 295 288 254 255 262 225 229 217 214 204 232 236 222 232 237 209 205 210 206 207 208 215 219 217 215 215 213 214 220 223 224 224 223 227 229
273 277 279 290 304 299 286 280 298 288 261 260 254 213 223 226 208 216 226 229 231 231 238 230 216 233 212 208 209 215 221 222 217 217 221 224 225 227 230 233 231 233 234
269 269 276 276 289 299 294 281 266 291 275 270 246 229 219 225 219 226 232 229 229 234 237 234 226 230 215 209 211 216 219 224 225 222 224 228 230 231 230 234 235 237 238
267 264 269 272 272 283 292 289 268 255 276 261 255 210 228 240 223 216 213 220 237 247 248 251 237 223 214 207 216 217 221 223 226 229 230 231 234 234 236 235 234 234 233
264 264 263 266 262 268 276 286 287 270 255 235 250 243 229 218 209 212 221 228 240 244 247 251 237 231 208 205 206 213 224 228 230 232 236 238 238 237 236 236 234 231 230
265 261 259 259 259 258 261 271 281 281 271 259 235 225 242 231 224 219 230 236 243 241 240 241 236 226 218 223 214 216 220 228 232 234 236 238 240 239 236 232 233 237 237
266 264 257 255 259 256 255 255 264 270 275 275 265 246 234 223 207 218 221 218 228 240 245 237 239 232 217 220 220 217 221 228 232 235 237 238 238 238 237 235 237 241 244
263 260 254 251 253 256 255 251 252 261 265 270 270 257 243 228 220 218 213 237 253 246 244 230 233 229 238 221 220 220 223 230 236 237 237 237 236 237 240 240 241 242 244
258 259 257 249 246 251 254 252 248 250 253 255 255 258 255 242 236 220 223 223 225 237 235 229 217 219 226 226 221 223 227 234 239 244 240 238 238 239 241 243 244 245 247
260 258 257 257 253 245 250 254 253 245 246 244 247 244 246 250 243 239 228 222 221 227 236 237 242 238 231 225 239 240 232 244 243 242 245 243 243 246 247 247 248 249 251
256 259 256 253 256 253 246 247 251 252 246 244 241 243 243 240 244 245 243 239 231 230 231 235 235 233 234 237 235 236 244 245 247 244 246 246 249 249 250 252 252 253 253
250 252 255 255 250 252 251 246 245 247 247 245 245 245 245 245 243 242 241 242 243 241 240 240 241 243 244 241 240 242 242 245 248 246 248 247 247 248 250 251 252 254 256
253 252 253 254 253 250 251 250 247 243 246 248 246 248 248 247 245 244 243 242 241 240 241 244 244 245 248 248 249 248 245 243 243 243 246 248 248 250 252 254 256 257 259
251 248 248 251 254 253 251 252 249 244 238 238 243 243 242 242 242 243 244 244 244 242 243 242 244 247 248 249 250 252 251 249 247 246 246 247 249 250 252 255 256 257 258
254 253 249 247 250 253 253 251 249 243 238 235 235 239 246 249 248 246 246 247 248 249 247 246 244 243 245 247 250 252 254 254 253 252 252 252 252 254 254 255 257 259 260
256 255 253 251 247 248 250 252 250 244 240 239 238 239 240 242 247 250 250 248 248 249 250 251 250 246 244 246 248 249 251 254 256 257 257 256 256 257 258 258 258 259 259